TimePDT,TemperatureF,Dew PointF,Humidity,Sea Level PressureIn,VisibilityMPH,Wind Direction,Wind SpeedMPH,Gust SpeedMPH,PrecipitationIn,Events,Conditions,WindDirDegrees,DateUTC
12:53 AM,75.0,62.1,64,29.83,10.0,NW,18.4,23.0,N/A,,Clear,320,2013-09-13 07:53:00
1:53 AM,73.9,61.0,64,29.83,10.0,NW,16.1,21.9,N/A,,Clear,320,2013-09-13 08:53:00
2:53 AM,73.9,61.0,64,29.83,10.0,NW,13.8,-,N/A,,Clear,310,2013-09-13 09:53:00
3:53 AM,73.0,62.1,68,29.83,10.0,NW,17.3,-,N/A,,Clear,320,2013-09-13 10:53:00
4:53 AM,71.1,61.0,70,29.83,10.0,WNW,6.9,-,N/A,,Clear,290,2013-09-13 11:53:00
5:53 AM,71.1,61.0,70,29.83,10.0,NW,13.8,-,N/A,,Clear,320,2013-09-13 12:53:00
6:53 AM,70.0,61.0,73,29.84,10.0,NW,9.2,18.4,N/A,,Clear,310,2013-09-13 13:53:00
7:53 AM,70.0,59.0,68,29.85,10.0,West,4.6,-,N/A,,Clear,260,2013-09-13 14:53:00
8:53 AM,73.9,61.0,64,29.84,10.0,NW,11.5,-,N/A,,Clear,320,2013-09-13 15:53:00
9:53 AM,77.0,61.0,58,29.84,10.0,NW,12.7,19.6,N/A,,Clear,320,2013-09-13 16:53:00
10:53 AM,79.0,61.0,54,29.82,10.0,NNW,17.3,27.6,N/A,,Clear,330,2013-09-13 17:53:00
11:53 AM,82.0,60.1,47,29.80,10.0,NNW,17.3,28.8,N/A,,Clear,330,2013-09-13 18:53:00
12:53 PM,84.9,59.0,41,29.77,10.0,NNW,23.0,28.8,N/A,,Clear,330,2013-09-13 19:53:00
1:53 PM,87.1,60.1,40,29.75,10.0,NNW,21.9,31.1,N/A,,Unknown,330,2013-09-13 20:53:00
2:53 PM,89.1,60.1,38,29.73,10.0,NNW,20.7,27.6,N/A,,Clear,330,2013-09-13 21:53:00
3:53 PM,88.0,60.1,39,29.71,10.0,NW,19.6,26.5,N/A,,Clear,320,2013-09-13 22:53:00
4:53 PM,86.0,59.0,40,29.70,10.0,NNW,19.6,28.8,N/A,,Clear,330,2013-09-13 23:53:00
5:53 PM,84.0,59.0,43,29.69,10.0,NW,21.9,26.5,N/A,,Clear,320,2013-09-14 00:53:00
6:53 PM,80.1,59.0,48,29.69,10.0,NNW,19.6,29.9,N/A,,Clear,330,2013-09-14 01:53:00
7:53 PM,77.0,60.1,56,29.71,10.0,NW,17.3,26.5,N/A,,Clear,320,2013-09-14 02:53:00
8:53 PM,75.0,60.1,60,29.73,10.0,NNW,19.6,27.6,N/A,,Clear,330,2013-09-14 03:53:00
9:53 PM,73.9,59.0,59,29.74,10.0,NW,16.1,21.9,N/A,,Clear,320,2013-09-14 04:53:00
10:53 PM,73.9,59.0,59,29.75,10.0,NW,15.0,26.5,N/A,,Clear,320,2013-09-14 05:53:00
11:53 PM,72.0,59.0,64,29.75,10.0,NW,18.4,26.5,N/A,,Clear,320,2013-09-14 06:53:00